Starlink 6055

operational
NORAD ID: 56467 Int'l Des: 2023-064 Owner: SPXS Country: US Constellation: starlink
LEOCIRCULAR

关于 Starlink 6055

正在加载描述...

实时位置

正在加载3D地球...

即将过境

高度历史

Altitude vs Time

uPlot chart will show altitude changes over time

两行轨道根数

1 56467U 23064V 25303.82421419 -.00000012 00000-0 67761-5 0 9993
2 56467 69.9985 92.0163 0002942 269.9476 90.1346 14.98331084136281
Epoch: Oct 30, 2025 • Age: 17 hours

当前状态

高度 595.5 km
速度 7.56 km/s
星下点 -69.67°S, 136.99°E
发射日期 May 10, 2023
运行时间 2.4 years
类型 internet

技术详情

分类 Payload
质量 305.00 kg
干质量 290.00 kg
总质量 305.00 kg
长度 0.20 m
直径 2.80 m
跨度 9.00 m
形状 Box + pan
制造商 SPXS
平台类型 Starlink
阶段状态 In Orbit
所有者/国家 SPXS/US

大型星座

Loading constellations...